• MPC Preparation (Info)

  • MPEC 2023-L63 : 2023 LX

    The following Minor Planet Electronic Circular may be linked-to from your own Web pages, but must not otherwise be redistributed electronically.

    A form allowing access to any MPEC is at the bottom of this page.


    Read MPEC 2023-L62 Read MPEC 2023-L64


    M.P.E.C. 2023-L63                                 Issued 2023 June 12, 10:47 UT
    
         The Minor Planet Electronic Circulars contain information on unusual
             minor planets, routine data on comets and natural satellites,
             and occasional editorial announcements.  They are published
        on behalf of Division F of the International Astronomical Union by the
              Minor Planet Center, Smithsonian Astrophysical Observatory,
                              Cambridge, MA 02138, U.S.A.
    			  
                 Prepared using the Tamkin Foundation Computer Network
    
                                  MPC@CFA.HARVARD.EDU
                URL https://www.minorplanetcenter.net/    ISSN 1523-6714
    
                                     2023 LX                                 
    
    
    Observations:
         K23L00X*1C2023 06 10.40211720 10 00.142-09 47 48.73         20.77GVEL063G96
         K23L00X 1C2023 06 10.40633020 10 01.103-09 47 44.23         20.55GVEL063G96
         K23L00X 1C2023 06 10.41053020 10 02.086-09 47 40.16         20.46GVEL063G96
         K23L00X mC2023 06 10.43930220 10 08.800-09 47 11.80         21.33GVEL063I52
         K23L00X mC2023 06 10.44001120 10 08.930-09 47 11.00         21.13GVEL063I52
         K23L00X  C2023 06 10.44216220 10 09.285-09 47 09.76         20.7 GVEL063H01
         K23L00X  C2023 06 10.44781120 10 10.605-09 47 03.96         20.6 GVEL063H01
         K23L00X  C2023 06 10.45302720 10 11.809-09 46 58.89         20.3 GVEL063H01
         K23L00X  C2023 06 10.45644520 10 12.606-09 46 55.40         20.6 GVEL063H01
         K23L00X mC2023 06 10.45766120 10 12.880-09 46 53.70               VEL063I52
         K23L00X mC2023 06 10.45987020 10 13.570-09 46 50.90               VEL063I52
         K23L00X mC2023 06 10.46058720 10 13.710-09 46 50.60               VEL063I52
         K23L00X |C2023 06 11.21413 20 13 21.41 -09 33 38.4          20.6 VuEL063807
         K23L00X |C2023 06 11.21855 20 13 22.52 -09 33 34.7          20.3 VuEL063807
         K23L00X |C2023 06 11.22290 20 13 23.54 -09 33 31.1          20.3 VuEL063807
         K23L00X  C2023 06 11.31191120 13 45.629-09 32 40.57         20.3 GVEL063H01
         K23L00X KC2023 06 11.32257020 13 48.148-09 32 30.11         20.3 GVEL063H01
         K23L00X KC2023 06 11.33210520 13 50.408-09 32 20.49         20.4 GVEL063H01
         K23L00X  C2023 06 12.33702120 18 01.016-09 15 24.30         20.6 GVEL063H01
         K23L00X  C2023 06 12.34455920 18 02.807-09 15 16.74         20.4 GVEL063H01
         K23L00X  C2023 06 12.35838720 18 06.104-09 15 02.84         20.5 GVEL063H01
         K23L00X  C2023 06 12.36150820 18 06.851-09 14 59.68         20.4 GVEL063H01
         K23L00X mC2023 06 12.43053520 18 23.400-09 13 49.10         21.23GVEL063I52
         K23L00X mC2023 06 12.43113420 18 23.470-09 13 48.20               VEL063I52
         K23L00X mC2023 06 12.43223720 18 23.790-09 13 46.70         20.27GVEL063I52
    
    Observer details:
    807 Cerro Tololo Observatory, La Serena.  Observers T. Linder, R. Holmes, L.
        Horn.  0.61-m f/6.5 Dall-Kirkham Astrograph + CCD.
    G96 Mt. Lemmon Survey.  Observer A. Serrano.  Measurers E. J. Christensen, D.
        Fay, J. B. Fazekas, D. C. Fuls, A. R. Gibbs, A. D. Grauer, H. Groeller, J.
        K. Hogan, R. A. Kowalski, S. M. Larson, G. J. Leonard, D. Rankin, R. L.
        Seaman, A. Serrano, F. C. Shelly, K. W. Wierzchos.  1.5-m reflector + 10K
        CCD.
    H01 Magdalena Ridge Observatory, Socorro.  Observers W. H. Ryan, E. V. Ryan.
        Measurer W. H. Ryan.  2.4-m f/8.9 Ritchey-Chretien + CCD.
    I52 Steward Observatory, Mt. Lemmon Station.  Observers J. K. Hogan, D.
        Rankin.  Measurers E. J. Christensen, D. Fay, J. B. Fazekas, D. C. Fuls,
        A. R. Gibbs, A. D. Grauer, H. Groeller, J. K. Hogan, R. A. Kowalski, S. M.
        Larson, G. J. Leonard, D. Rankin, R. L. Seaman, A. Serrano, F. C. Shelly,
        K. W. Wierzchos.  1.0-m prime focus + CCD.
    
    Orbital elements:
    2023 LX                                                  Earth MOID = 0.1219 AU
    Epoch 2023 Feb. 25.0 TT = JDT 2460000.5                 Veres                   
    M 305.86885              (2000.0)            P               Q                  
    n   0.38259897     Peri.  150.43792     +0.50202481     +0.86463638             
    a   1.8792022      Node   149.68399     -0.80082646     +0.47319760             
    e   0.3950882      Incl.    2.19872     -0.32657016     +0.16878380             
    P   2.58           H   22.16          G   0.15           U   9                  
    Residuals in seconds of arc
    230610 G96  0.1+  0.3-    230610 I52  2.2-  0.3-    230612 H01  0.1+  0.0
    230610 G96  0.1-  0.1+    230610 I52  0.4+  0.3+    230612 H01  0.0   0.0
    230610 G96  0.0   0.0     230610 I52  0.0   0.1-    230612 H01  0.0   0.0
    230610 I52  0.5+  0.1-    230611 807  0.3-  0.7+    230612 H01  0.0   0.1+
    230610 I52  0.0   0.0     230611 807  0.6+  0.0     230612 I52  0.3+  0.1-
    230610 H01  0.2-  0.2-    230611 807  0.5+  0.7-    230612 I52  0.7-  0.2+
    230610 H01  0.1-  0.1-    230611 H01  0.2-  0.2-    230612 I52  0.2+  0.6+
    230610 H01  0.3-  0.2-    230611 H01  0.4-  0.2-
    230610 H01  0.2-  0.1-    230611 H01  0.4-  0.0
    
    Ephemeris:
    2023 LX                  a,e,i = 1.88, 0.40, 2                   q = 1.1368
    Date    TT    R. A. (2000) Decl.     Delta      r    Elong.  Phase     V
    2023 05 13    18 32 06.0 -15 42 19   0.3803  1.3013   133.4    34.3    22.1
    ...
    2023 05 28    19 19 25.2 -13 03 57   0.2912  1.2387   135.8    34.8    21.4
    ...
    2023 06 05    19 48 33.8 -11 12 51   0.2542  1.2101   135.9    35.7    21.1
    ...
    2023 06 11    20 12 26.9 -09 37 29   0.2314  1.1912   135.4    36.7    20.9
    2023 06 12    20 16 35.4 -09 20 42   0.2280  1.1883   135.3    36.9    20.8
    2023 06 13    20 20 46.5 -09 03 42   0.2247  1.1855   135.2    37.1    20.8
    ...
    2023 06 19    20 46 42.7 -07 18 02   0.2073  1.1700   134.2    38.5    20.6
    ...
    2023 06 27    21 22 53.8 -04 53 26   0.1905  1.1537   132.5    40.5    20.5
    ...
    2023 07 12    22 29 56.0 -00 54 59   0.1763  1.1376   129.8    43.3    20.3
    
    M. P. C. Staff               (C) Copyright 2023 MPC           M.P.E.C. 2023-L63
    


    Read MPEC 2023-L62 Read MPEC 2023-L64


    MPEC number:

    Enter an MPEC number in one of the following forms:

    • 1997-B01 (the full form)
    • J97B01 (the packed version of the full form)
    • B01 (the abbreviated form)